Time,TemperatureF,DewpointF,PressureIn,WindDirection,WindDirectionDegrees,WindSpeedMPH,WindSpeedGustMPH,Humidity,HourlyPrecipIn,Conditions,Clouds,dailyrainin,SoftwareType,DateUTC
2013-03-01 00:01:00,41.8,40.5,30.19,NW,311,0.0,1.0,95,0.00,,---,0.72,VWS V14.00,2013-03-01 08:01:00,
2013-03-01 00:06:00,41.8,40.5,30.19,NW,311,0.0,2.0,95,0.00,,---,0.00,VWS V14.00,2013-03-01 08:06:00,
2013-03-01 00:11:00,41.7,40.4,30.19,NW,311,0.0,1.0,95,0.00,,---,0.00,VWS V14.00,2013-03-01 08:11:00,
2013-03-01 00:16:00,41.6,40.3,30.20,NW,311,0.0,2.0,95,0.00,,---,0.00,VWS V14.00,2013-03-01 08:16:00,
2013-03-01 00:21:00,41.6,40.3,30.20,NW,311,0.0,2.0,95,0.00,,---,0.00,VWS V14.00,2013-03-01 08:21:00,
2013-03-01 00:26:00,41.6,40.3,30.20,NW,311,0.0,2.0,95,0.00,,---,0.00,VWS V14.00,2013-03-01 08:26:00,
2013-03-01 00:31:00,41.7,40.4,30.20,NW,311,0.0,1.0,95,0.00,,---,0.00,VWS V14.00,2013-03-01 08:31:00,
2013-03-01 00:36:00,41.6,40.3,30.19,NW,311,0.0,1.0,95,0.00,,---,0.00,VWS V14.00,2013-03-01 08:36:00,
2013-03-01 00:41:00,41.6,40.3,30.19,NW,311,0.0,0.0,95,0.00,,---,0.00,VWS V14.00,2013-03-01 08:41:00,
2013-03-01 00:46:00,41.7,40.4,30.19,NW,310,0.0,2.0,95,0.00,,---,0.00,VWS V14.00,2013-03-01 08:46:00,
2013-03-01 00:51:00,41.7,40.4,30.20,NW,311,1.0,1.0,95,0.00,,---,0.00,VWS V14.00,2013-03-01 08:51:00,
2013-03-01 00:56:00,41.6,40.3,30.20,NW,311,0.0,2.0,95,0.00,,---,0.00,VWS V14.00,2013-03-01 08:56:00,
2013-03-01 01:01:00,41.6,40.3,30.20,NW,311,0.0,0.0,95,0.00,,---,0.00,VWS V14.00,2013-03-01 09:01:00,
2013-03-01 01:06:00,41.5,40.2,30.20,NW,311,0.0,0.0,95,0.00,,---,0.00,VWS V14.00,2013-03-01 09:06:00,
2013-03-01 01:11:00,41.5,40.2,30.20,NW,311,0.0,0.0,95,0.00,,---,0.00,VWS V14.00,2013-03-01 09:11:00,
2013-03-01 01:16:00,41.5,40.2,30.20,NW,311,0.0,0.0,95,0.00,,---,0.00,VWS V14.00,2013-03-01 09:16:00,
2013-03-01 01:21:00,41.5,40.2,30.21,NW,311,0.0,0.0,95,0.00,,---,0.00,VWS V14.00,2013-03-01 09:21:00,
2013-03-01 01:26:00,41.5,40.2,30.21,NW,311,0.0,0.0,95,0.00,,---,0.00,VWS V14.00,2013-03-01 09:26:00,
2013-03-01 01:31:00,41.4,40.1,30.21,NW,311,0.0,1.0,95,0.00,,---,0.00,VWS V14.00,2013-03-01 09:31:00,
2013-03-01 01:36:00,41.4,40.1,30.20,NW,311,0.0,0.0,95,0.00,,---,0.01,VWS V14.00,2013-03-01 09:36:00,
2013-03-01 01:41:00,41.5,40.2,30.21,NW,311,0.0,1.0,95,0.00,,---,0.01,VWS V14.00,2013-03-01 09:41:00,
2013-03-01 01:46:00,41.6,40.3,30.21,NW,311,0.0,1.0,95,0.00,,---,0.01,VWS V14.00,2013-03-01 09:46:00,
2013-03-01 01:51:00,41.5,40.2,30.20,NW,311,0.0,1.0,95,0.03,,---,0.02,VWS V14.00,2013-03-01 09:51:00,
2013-03-01 01:56:00,41.5,40.2,30.21,NW,311,0.0,1.0,95,0.03,,---,0.02,VWS V14.00,2013-03-01 09:56:00,
2013-03-01 02:01:00,41.5,40.2,30.21,NW,311,0.0,0.0,95,0.03,,---,0.02,VWS V14.00,2013-03-01 10:01:00,
2013-03-01 02:06:00,41.5,40.2,30.20,NW,311,0.0,1.0,95,0.03,,---,0.02,VWS V14.00,2013-03-01 10:06:00,
2013-03-01 02:11:00,41.6,40.3,30.20,NW,311,0.0,1.0,95,0.00,,---,0.02,VWS V14.00,2013-03-01 10:11:00,
2013-03-01 02:16:00,41.6,40.3,30.20,NW,311,1.0,2.0,95,0.00,,---,0.02,VWS V14.00,2013-03-01 10:16:00,
2013-03-01 02:21:00,41.4,40.1,30.20,NW,311,0.0,2.0,95,0.00,,---,0.02,VWS V14.00,2013-03-01 10:21:00,
2013-03-01 02:26:00,41.3,40.0,30.20,NW,310,0.0,0.0,95,0.00,,---,0.02,VWS V14.00,2013-03-01 10:26:00,
2013-03-01 02:31:00,41.3,40.0,30.20,NW,311,0.0,0.0,95,0.00,,---,0.02,VWS V14.00,2013-03-01 10:31:00,
2013-03-01 02:36:00,41.3,40.0,30.20,NW,311,0.0,1.0,95,0.00,,---,0.02,VWS V14.00,2013-03-01 10:36:00,
2013-03-01 02:41:00,41.3,40.0,30.20,NW,311,0.0,1.0,95,0.00,,---,0.03,VWS V14.00,2013-03-01 10:41:00,
2013-03-01 02:46:00,41.4,40.1,30.20,NW,311,0.0,1.0,95,0.00,,---,0.03,VWS V14.00,2013-03-01 10:46:00,
2013-03-01 02:51:00,41.4,40.1,30.19,NW,311,0.0,1.0,95,0.05,,---,0.04,VWS V14.00,2013-03-01 10:51:00,
2013-03-01 02:56:00,41.4,40.1,30.19,NW,310,0.0,0.0,95,0.07,,---,0.05,VWS V14.00,2013-03-01 10:56:00,
2013-03-01 03:01:00,41.4,40.1,30.20,NW,311,0.0,0.0,95,0.07,,---,0.05,VWS V14.00,2013-03-01 11:01:00,
2013-03-01 03:06:00,41.4,40.1,30.20,NW,311,0.0,0.0,95,0.04,,---,0.06,VWS V14.00,2013-03-01 11:06:00,
2013-03-01 03:11:00,41.5,40.2,30.20,NW,310,0.0,0.0,95,0.04,,---,0.06,VWS V14.00,2013-03-01 11:11:00,
2013-03-01 03:16:00,41.5,40.2,30.20,NW,311,0.0,1.0,95,0.07,,---,0.06,VWS V14.00,2013-03-01 11:16:00,
2013-03-01 03:21:00,41.5,40.2,30.19,North,5,2.0,3.0,95,0.06,,---,0.07,VWS V14.00,2013-03-01 11:21:00,
2013-03-01 03:26:00,41.7,40.4,30.19,North,9,0.0,2.0,95,0.12,,---,0.08,VWS V14.00,2013-03-01 11:26:00,
2013-03-01 03:31:00,41.7,40.4,30.19,North,9,0.0,1.0,95,0.13,,---,0.09,VWS V14.00,2013-03-01 11:31:00,
2013-03-01 03:36:00,41.8,40.5,30.19,North,9,0.0,2.0,95,0.24,,---,0.11,VWS V14.00,2013-03-01 11:36:00,
2013-03-01 03:41:00,41.8,40.5,30.19,NW,304,0.0,4.0,95,0.13,,---,0.12,VWS V14.00,2013-03-01 11:41:00,
2013-03-01 03:45:00,41.7,40.4,30.19,NW,304,0.0,0.0,95,0.06,,---,0.12,VWS V14.00,2013-03-01 11:45:00,
2013-03-01 03:50:00,41.8,40.5,30.19,NW,304,0.0,2.0,95,0.04,,---,0.12,VWS V14.00,2013-03-01 11:50:00,
2013-03-01 03:55:00,41.8,40.5,30.19,NW,304,0.0,1.0,95,0.00,,---,0.12,VWS V14.00,2013-03-01 11:55:00,
2013-03-01 04:00:00,42.0,40.7,30.19,NW,304,1.0,2.0,95,0.00,,---,0.13,VWS V14.00,2013-03-01 12:00:00,
2013-03-01 04:05:00,42.0,40.7,30.19,NW,304,0.0,1.0,95,0.00,,---,0.13,VWS V14.00,2013-03-01 12:05:00,
2013-03-01 04:10:00,42.0,40.7,30.19,NW,304,0.0,1.0,95,0.00,,---,0.13,VWS V14.00,2013-03-01 12:10:00,
2013-03-01 04:15:00,42.0,40.7,30.18,NW,304,0.0,0.0,95,0.00,,---,0.13,VWS V14.00,2013-03-01 12:15:00,
2013-03-01 04:20:00,42.0,40.7,30.19,NW,304,0.0,1.0,95,0.00,,---,0.13,VWS V14.00,2013-03-01 12:20:00,
2013-03-01 04:25:00,42.0,40.7,30.19,NW,304,0.0,0.0,95,0.00,,---,0.13,VWS V14.00,2013-03-01 12:25:00,
2013-03-01 04:30:00,42.2,40.9,30.19,NW,304,0.0,0.0,95,0.00,,---,0.13,VWS V14.00,2013-03-01 12:30:00,
2013-03-01 04:35:00,42.2,40.9,30.19,NW,304,0.0,0.0,95,0.00,,---,0.13,VWS V14.00,2013-03-01 12:35:00,
2013-03-01 04:40:00,42.2,40.9,30.18,NW,304,0.0,0.0,95,0.00,,---,0.14,VWS V14.00,2013-03-01 12:40:00,
2013-03-01 04:45:00,42.3,41.0,30.18,NW,304,0.0,0.0,95,0.00,,---,0.14,VWS V14.00,2013-03-01 12:45:00,
2013-03-01 04:50:00,42.3,41.0,30.19,NW,304,0.0,0.0,95,0.00,,---,0.14,VWS V14.00,2013-03-01 12:50:00,
2013-03-01 04:55:00,42.2,40.9,30.19,NW,304,0.0,1.0,95,0.03,,---,0.15,VWS V14.00,2013-03-01 12:55:00,
2013-03-01 05:00:00,42.2,40.9,30.19,NW,304,0.0,0.0,95,0.03,,---,0.15,VWS V14.00,2013-03-01 13:00:00,
2013-03-01 05:05:00,42.2,40.9,30.18,NW,304,0.0,0.0,95,0.03,,---,0.15,VWS V14.00,2013-03-01 13:05:00,
2013-03-01 05:10:00,42.2,40.9,30.19,NW,304,0.0,0.0,95,0.03,,---,0.16,VWS V14.00,2013-03-01 13:10:00,
2013-03-01 05:15:00,42.2,40.9,30.18,NW,314,1.0,5.0,95,0.03,,---,0.16,VWS V14.00,2013-03-01 13:15:00,
2013-03-01 05:20:00,42.3,41.0,30.19,NW,314,0.0,2.0,95,0.03,,---,0.16,VWS V14.00,2013-03-01 13:20:00,
2013-03-01 05:25:00,42.3,41.0,30.19,NW,313,0.0,0.0,95,0.00,,---,0.16,VWS V14.00,2013-03-01 13:25:00,
2013-03-01 05:30:00,42.3,41.0,30.19,NW,314,0.0,0.0,95,0.00,,---,0.16,VWS V14.00,2013-03-01 13:30:00,
2013-03-01 05:35:00,42.3,41.0,30.18,NW,313,1.0,2.0,95,0.00,,---,0.17,VWS V14.00,2013-03-01 13:35:00,
2013-03-01 05:40:00,42.2,40.9,30.18,NW,313,0.0,2.0,95,0.00,,---,0.17,VWS V14.00,2013-03-01 13:40:00,
2013-03-01 05:45:00,42.2,40.9,30.19,West,273,0.0,5.0,95,0.00,,---,0.17,VWS V14.00,2013-03-01 13:45:00,
2013-03-01 05:50:00,42.2,40.9,30.19,West,273,0.0,4.0,95,0.00,,---,0.17,VWS V14.00,2013-03-01 13:50:00,
2013-03-01 05:55:00,42.2,40.9,30.17,West,273,0.0,1.0,95,0.00,,---,0.17,VWS V14.00,2013-03-01 13:55:00,
2013-03-01 06:00:00,42.5,41.2,30.17,SE,138,0.0,4.0,95,0.00,,---,0.17,VWS V14.00,2013-03-01 14:00:00,
2013-03-01 06:05:00,42.7,41.4,30.17,SE,138,0.0,1.0,95,0.00,,---,0.17,VWS V14.00,2013-03-01 14:05:00,
2013-03-01 06:10:00,42.7,41.4,30.19,WSW,253,3.0,3.0,95,0.00,,---,0.17,VWS V14.00,2013-03-01 14:10:00,
2013-03-01 06:15:00,42.3,41.0,30.19,West,279,0.0,4.0,95,0.00,,---,0.17,VWS V14.00,2013-03-01 14:15:00,
2013-03-01 06:20:00,42.3,41.0,30.17,West,279,0.0,1.0,95,0.00,,---,0.17,VWS V14.00,2013-03-01 14:20:00,
2013-03-01 06:25:00,42.4,41.1,30.18,South,169,1.0,4.0,95,0.00,,---,0.17,VWS V14.00,2013-03-01 14:25:00,
2013-03-01 06:30:00,43.0,41.7,30.18,NE,44,0.0,4.0,95,0.00,,---,0.17,VWS V14.00,2013-03-01 14:30:00,
2013-03-01 06:35:00,43.0,41.7,30.17,NNE,31,2.0,2.0,95,0.00,,---,0.17,VWS V14.00,2013-03-01 14:35:00,
2013-03-01 06:40:00,42.9,41.6,30.18,NNW,343,0.0,4.0,95,0.00,,---,0.17,VWS V14.00,2013-03-01 14:40:00,
2013-03-01 06:45:00,42.6,41.3,30.19,West,267,0.0,4.0,95,0.00,,---,0.17,VWS V14.00,2013-03-01 14:45:00,
2013-03-01 06:50:00,42.7,41.4,30.19,South,184,2.0,2.0,95,0.00,,---,0.17,VWS V14.00,2013-03-01 14:50:00,
2013-03-01 06:55:00,44.0,42.7,30.19,SE,134,0.0,5.0,95,0.00,,---,0.17,VWS V14.00,2013-03-01 14:55:00,
2013-03-01 07:00:00,44.5,43.2,30.20,South,190,1.0,5.0,95,0.00,,---,0.17,VWS V14.00,2013-03-01 15:00:00,
2013-03-01 07:05:00,44.6,43.3,30.19,West,273,4.0,6.0,95,0.00,,---,0.17,VWS V14.00,2013-03-01 15:05:00,
2013-03-01 07:10:00,44.4,43.1,30.18,SSE,157,1.0,5.0,95,0.00,,---,0.18,VWS V14.00,2013-03-01 15:10:00,
2013-03-01 07:15:00,44.5,43.2,30.18,South,170,0.0,4.0,95,0.00,,---,0.18,VWS V14.00,2013-03-01 15:15:00,
2013-03-01 07:20:00,44.3,43.0,30.18,WNW,303,1.0,4.0,95,0.00,,---,0.18,VWS V14.00,2013-03-01 15:20:00,
2013-03-01 07:25:00,43.9,42.6,30.19,West,268,0.0,5.0,95,0.00,,---,0.18,VWS V14.00,2013-03-01 15:25:00,
2013-03-01 07:30:00,43.6,42.3,30.20,West,268,0.0,4.0,95,0.00,,---,0.18,VWS V14.00,2013-03-01 15:30:00,
2013-03-01 07:35:00,43.6,42.3,30.19,SE,139,0.0,4.0,95,0.00,,---,0.18,VWS V14.00,2013-03-01 15:35:00,
2013-03-01 07:40:00,43.8,42.5,30.19,SE,140,0.0,1.0,95,0.00,,---,0.19,VWS V14.00,2013-03-01 15:40:00,
2013-03-01 07:45:00,43.9,42.6,30.20,East,82,2.0,2.0,95,0.00,,---,0.19,VWS V14.00,2013-03-01 15:45:00,
2013-03-01 07:50:00,44.0,42.7,30.19,ENE,59,0.0,3.0,95,0.06,,---,0.20,VWS V14.00,2013-03-01 15:50:00,
2013-03-01 07:55:00,44.1,42.8,30.18,ENE,59,0.0,1.0,95,0.06,,---,0.20,VWS V14.00,2013-03-01 15:55:00,
2013-03-01 08:00:00,44.2,42.9,30.17,WNW,298,0.0,4.0,95,0.04,,---,0.20,VWS V14.00,2013-03-01 16:00:00,
2013-03-01 08:05:00,44.4,43.1,30.18,West,275,2.0,5.0,95,0.00,,---,0.20,VWS V14.00,2013-03-01 16:05:00,
2013-03-01 08:10:00,44.1,42.8,30.18,West,279,1.0,4.0,95,0.00,,---,0.20,VWS V14.00,2013-03-01 16:10:00,
2013-03-01 08:15:00,44.4,43.1,30.18,SW,223,2.0,2.0,95,0.00,,---,0.20,VWS V14.00,2013-03-01 16:15:00,
2013-03-01 08:20:00,44.3,43.0,30.19,SW,227,0.0,3.0,95,0.00,,---,0.20,VWS V14.00,2013-03-01 16:20:00,
2013-03-01 08:25:00,44.2,42.9,30.20,SSW,213,1.0,2.0,95,0.00,,---,0.20,VWS V14.00,2013-03-01 16:25:00,
2013-03-01 08:30:00,44.6,43.3,30.20,SW,221,0.0,2.0,95,0.00,,---,0.20,VWS V14.00,2013-03-01 16:30:00,
2013-03-01 08:35:00,45.0,43.7,30.20,SSE,153,0.0,2.0,95,0.00,,---,0.20,VWS V14.00,2013-03-01 16:35:00,
2013-03-01 08:40:00,45.1,43.8,30.20,West,267,0.0,3.0,95,0.00,,---,0.20,VWS V14.00,2013-03-01 16:40:00,
2013-03-01 08:45:00,44.9,43.6,30.20,SW,217,1.0,1.0,95,0.00,,---,0.21,VWS V14.00,2013-03-01 16:45:00,
2013-03-01 08:50:00,45.0,43.7,30.20,WSW,244,2.0,3.0,95,0.00,,---,0.21,VWS V14.00,2013-03-01 16:50:00,
2013-03-01 08:55:00,45.1,43.8,30.21,WSW,250,0.0,3.0,95,0.06,,---,0.22,VWS V14.00,2013-03-01 16:55:00,
2013-03-01 09:00:00,45.2,43.9,30.20,SE,126,0.0,4.0,95,0.05,,---,0.22,VWS V14.00,2013-03-01 17:00:00,
2013-03-01 09:05:00,45.3,44.0,30.19,SSW,192,0.0,2.0,95,0.03,,---,0.22,VWS V14.00,2013-03-01 17:05:00,
2013-03-01 09:10:00,45.2,43.9,30.21,WSW,245,1.0,6.0,95,0.03,,---,0.23,VWS V14.00,2013-03-01 17:10:00,
2013-03-01 09:15:00,44.9,43.6,30.22,WSW,245,0.0,3.0,95,0.03,,---,0.23,VWS V14.00,2013-03-01 17:15:00,
2013-03-01 09:20:00,45.1,43.8,30.20,SE,131,0.0,1.0,95,0.03,,---,0.23,VWS V14.00,2013-03-01 17:20:00,
2013-03-01 09:25:00,45.4,44.0,30.20,SE,132,0.0,1.0,95,0.03,,---,0.24,VWS V14.00,2013-03-01 17:25:00,
2013-03-01 09:30:00,45.6,44.2,30.20,SE,132,2.0,2.0,95,0.14,,---,0.25,VWS V14.00,2013-03-01 17:30:00,
2013-03-01 09:35:00,45.7,44.3,30.21,SE,132,1.0,2.0,95,0.13,,---,0.26,VWS V14.00,2013-03-01 17:35:00,
2013-03-01 09:40:00,45.8,44.5,30.20,SE,131,1.0,1.0,95,0.09,,---,0.27,VWS V14.00,2013-03-01 17:40:00,
2013-03-01 09:45:00,45.9,44.5,30.21,SE,131,0.0,1.0,95,0.07,,---,0.27,VWS V14.00,2013-03-01 17:45:00,
2013-03-01 09:50:00,45.8,44.5,30.21,SE,131,0.0,2.0,95,0.04,,---,0.27,VWS V14.00,2013-03-01 17:50:00,
2013-03-01 09:55:00,46.0,44.7,30.21,SE,132,0.0,0.0,95,0.03,,---,0.27,VWS V14.00,2013-03-01 17:55:00,
2013-03-01 10:00:00,46.3,45.0,30.21,East,94,2.0,2.0,95,0.00,,---,0.27,VWS V14.00,2013-03-01 18:00:00,
2013-03-01 10:05:00,46.4,45.0,30.21,East,94,0.0,2.0,95,0.00,,---,0.27,VWS V14.00,2013-03-01 18:05:00,
2013-03-01 10:10:00,46.4,45.0,30.21,East,94,0.0,0.0,95,0.00,,---,0.28,VWS V14.00,2013-03-01 18:10:00,
2013-03-01 10:15:00,46.6,45.2,30.20,East,94,0.0,1.0,95,0.00,,---,0.28,VWS V14.00,2013-03-01 18:15:00,
2013-03-01 10:20:00,46.7,45.3,30.21,North,349,4.0,4.0,95,0.04,,---,0.28,VWS V14.00,2013-03-01 18:20:00,
2013-03-01 10:25:00,46.8,45.5,30.22,NE,49,0.0,4.0,95,0.04,,---,0.28,VWS V14.00,2013-03-01 18:25:00,
2013-03-01 10:30:00,47.0,45.7,30.20,NE,49,0.0,1.0,95,0.03,,---,0.28,VWS V14.00,2013-03-01 18:30:00,
2013-03-01 10:35:00,46.9,45.5,30.22,West,280,0.0,4.0,95,0.00,,---,0.29,VWS V14.00,2013-03-01 18:35:00,
2013-03-01 10:40:00,47.1,45.7,30.23,WSW,244,1.0,5.0,95,0.00,,---,0.29,VWS V14.00,2013-03-01 18:40:00,
2013-03-01 10:45:00,47.0,45.7,30.21,NW,325,0.0,6.0,95,0.00,,---,0.29,VWS V14.00,2013-03-01 18:45:00,
2013-03-01 10:50:00,47.1,45.7,30.20,NW,325,0.0,2.0,95,0.00,,---,0.29,VWS V14.00,2013-03-01 18:50:00,
2013-03-01 10:55:00,47.0,45.7,30.20,West,277,1.0,4.0,95,0.00,,---,0.30,VWS V14.00,2013-03-01 18:55:00,
2013-03-01 11:00:00,46.9,45.5,30.20,NW,314,0.0,4.0,95,0.06,,---,0.31,VWS V14.00,2013-03-01 19:00:00,
2013-03-01 11:05:00,47.2,45.8,30.20,NNW,336,0.0,2.0,95,0.13,,---,0.31,VWS V14.00,2013-03-01 19:05:00,
2013-03-01 11:10:00,47.4,46.0,30.20,NNW,336,0.0,1.0,95,0.07,,---,0.32,VWS V14.00,2013-03-01 19:10:00,
2013-03-01 11:15:00,47.9,46.5,30.21,North,351,0.0,2.0,95,0.06,,---,0.33,VWS V14.00,2013-03-01 19:15:00,
2013-03-01 11:20:00,48.4,47.0,30.21,North,351,0.0,1.0,95,0.06,,---,0.33,VWS V14.00,2013-03-01 19:20:00,
2013-03-01 11:25:00,48.6,47.2,30.21,North,351,1.0,1.0,95,0.05,,---,0.33,VWS V14.00,2013-03-01 19:25:00,
2013-03-01 11:30:00,48.9,47.5,30.21,North,351,0.0,1.0,95,0.03,,---,0.33,VWS V14.00,2013-03-01 19:30:00,
2013-03-01 11:35:00,49.1,47.7,30.21,North,351,1.0,1.0,95,0.00,,---,0.33,VWS V14.00,2013-03-01 19:35:00,
2013-03-01 11:40:00,49.2,47.8,30.21,North,351,0.0,1.0,95,0.00,,---,0.33,VWS V14.00,2013-03-01 19:40:00,
2013-03-01 11:45:00,49.3,47.9,30.21,North,351,0.0,1.0,95,0.00,,---,0.33,VWS V14.00,2013-03-01 19:45:00,
2013-03-01 11:50:00,49.4,48.0,30.21,North,351,0.0,2.0,95,0.00,,---,0.33,VWS V14.00,2013-03-01 19:50:00,
2013-03-01 11:55:00,49.4,48.0,30.20,North,351,0.0,1.0,95,0.00,,---,0.33,VWS V14.00,2013-03-01 19:55:00,
2013-03-01 12:00:00,49.4,48.0,30.21,North,351,0.0,2.0,95,0.00,,---,0.33,VWS V14.00,2013-03-01 20:00:00,
2013-03-01 12:05:00,48.9,47.5,30.21,ENE,57,0.0,5.0,95,0.00,,---,0.33,VWS V14.00,2013-03-01 20:05:00,
2013-03-01 12:10:00,49.1,47.7,30.21,ENE,74,3.0,4.0,95,0.00,,---,0.33,VWS V14.00,2013-03-01 20:10:00,
2013-03-01 12:15:00,48.6,47.2,30.21,NW,309,0.0,4.0,95,0.00,,---,0.33,VWS V14.00,2013-03-01 20:15:00,
2013-03-01 12:20:00,48.9,47.5,30.22,NW,312,0.0,2.0,95,0.00,,---,0.33,VWS V14.00,2013-03-01 20:20:00,
2013-03-01 12:25:00,48.8,47.4,30.22,NW,312,1.0,1.0,95,0.00,,---,0.33,VWS V14.00,2013-03-01 20:25:00,
2013-03-01 12:30:00,48.5,47.1,30.21,NW,312,0.0,4.0,95,0.00,,---,0.34,VWS V14.00,2013-03-01 20:30:00,
2013-03-01 12:35:00,48.5,47.1,30.22,WNW,298,0.0,2.0,95,0.00,,---,0.34,VWS V14.00,2013-03-01 20:35:00,
2013-03-01 12:40:00,48.7,47.3,30.22,WNW,298,0.0,0.0,95,0.00,,---,0.35,VWS V14.00,2013-03-01 20:40:00,
2013-03-01 12:45:00,48.4,47.0,30.23,WNW,298,0.0,1.0,95,0.04,,---,0.35,VWS V14.00,2013-03-01 20:45:00,
2013-03-01 12:50:00,48.4,47.0,30.23,WNW,298,0.0,1.0,95,0.08,,---,0.35,VWS V14.00,2013-03-01 20:50:00,
2013-03-01 12:55:00,48.6,47.2,30.22,NNE,14,0.0,2.0,95,0.09,,---,0.36,VWS V14.00,2013-03-01 20:55:00,
2013-03-01 13:00:00,48.4,47.0,30.22,NNE,29,1.0,3.0,95,0.15,,---,0.38,VWS V14.00,2013-03-01 21:00:00,
2013-03-01 13:05:00,48.3,46.9,30.21,NNE,28,0.0,1.0,95,0.31,,---,0.39,VWS V14.00,2013-03-01 21:05:00,
2013-03-01 13:10:00,48.4,47.0,30.21,West,269,0.0,5.0,95,0.27,,---,0.41,VWS V14.00,2013-03-01 21:10:00,
2013-03-01 13:15:00,48.6,47.2,30.20,West,279,2.0,4.0,95,0.07,,---,0.41,VWS V14.00,2013-03-01 21:15:00,
2013-03-01 13:20:00,48.5,47.1,30.20,South,189,2.0,4.0,95,0.06,,---,0.42,VWS V14.00,2013-03-01 21:20:00,
2013-03-01 13:25:00,48.4,47.0,30.21,West,273,2.0,7.0,95,0.06,,---,0.43,VWS V14.00,2013-03-01 21:25:00,
2013-03-01 13:30:00,48.0,46.6,30.21,East,97,1.0,4.0,95,0.12,,---,0.43,VWS V14.00,2013-03-01 21:30:00,
2013-03-01 13:35:00,48.1,46.7,30.21,East,92,0.0,5.0,95,0.06,,---,0.44,VWS V14.00,2013-03-01 21:35:00,
2013-03-01 13:40:00,48.2,47.4,30.21,East,92,0.0,2.0,97,0.06,,---,0.44,VWS V14.00,2013-03-01 21:40:00,
2013-03-01 13:45:00,48.3,46.9,30.21,East,92,0.0,1.0,95,0.04,,---,0.44,VWS V14.00,2013-03-01 21:45:00,
2013-03-01 13:50:00,48.4,47.0,30.20,East,92,0.0,1.0,95,0.04,,---,0.45,VWS V14.00,2013-03-01 21:50:00,
2013-03-01 13:55:00,48.3,46.9,30.20,East,92,0.0,1.0,95,0.04,,---,0.45,VWS V14.00,2013-03-01 21:55:00,
2013-03-01 14:00:00,48.3,46.9,30.21,West,265,0.0,5.0,95,0.04,,---,0.45,VWS V14.00,2013-03-01 22:00:00,
2013-03-01 14:05:00,48.4,47.0,30.21,WNW,283,2.0,4.0,95,0.00,,---,0.45,VWS V14.00,2013-03-01 22:05:00,
2013-03-01 14:10:00,48.5,47.1,30.21,SE,140,0.0,4.0,95,0.00,,---,0.45,VWS V14.00,2013-03-01 22:10:00,
2013-03-01 14:15:00,48.5,47.1,30.21,SE,140,1.0,2.0,95,0.00,,---,0.45,VWS V14.00,2013-03-01 22:15:00,
2013-03-01 14:20:00,48.7,47.3,30.21,East,92,0.0,4.0,95,0.00,,---,0.45,VWS V14.00,2013-03-01 22:20:00,
2013-03-01 14:25:00,48.6,47.2,30.20,ENE,74,1.0,4.0,95,0.00,,---,0.46,VWS V14.00,2013-03-01 22:25:00,
2013-03-01 14:30:00,48.6,47.2,30.21,West,273,0.0,4.0,95,0.00,,---,0.46,VWS V14.00,2013-03-01 22:30:00,
2013-03-01 14:35:00,48.8,47.4,30.20,WNW,290,0.0,3.0,95,0.04,,---,0.46,VWS V14.00,2013-03-01 22:35:00,
2013-03-01 14:40:00,48.8,47.4,30.20,WNW,291,0.0,1.0,95,0.04,,---,0.46,VWS V14.00,2013-03-01 22:40:00,
2013-03-01 14:45:00,49.0,47.6,30.20,WNW,290,0.0,1.0,95,0.04,,---,0.46,VWS V14.00,2013-03-01 22:45:00,
2013-03-01 14:50:00,49.2,47.8,30.21,WNW,291,0.0,1.0,95,0.03,,---,0.46,VWS V14.00,2013-03-01 22:50:00,
2013-03-01 14:55:00,49.4,48.0,30.21,SSW,199,0.0,4.0,95,0.00,,---,0.46,VWS V14.00,2013-03-01 22:55:00,
2013-03-01 15:00:00,48.8,47.4,30.21,SSW,198,0.0,1.0,95,0.00,,---,0.47,VWS V14.00,2013-03-01 23:00:00,
2013-03-01 15:05:00,48.6,47.2,30.22,SW,229,1.0,2.0,95,0.38,,---,0.50,VWS V14.00,2013-03-01 23:05:00,
2013-03-01 15:10:00,48.4,47.0,30.22,SW,229,0.0,1.0,95,0.24,,---,0.54,VWS V14.00,2013-03-01 23:10:00,
2013-03-01 15:15:00,48.3,46.9,30.21,SW,229,0.0,1.0,95,0.29,,---,0.55,VWS V14.00,2013-03-01 23:15:00,
2013-03-01 15:20:00,48.3,46.9,30.21,NE,55,0.0,3.0,95,0.34,,---,0.60,VWS V14.00,2013-03-01 23:20:00,
2013-03-01 15:25:00,48.1,46.7,30.20,NE,55,0.0,0.0,95,0.15,,---,0.62,VWS V14.00,2013-03-01 23:25:00,
2013-03-01 15:30:00,48.1,46.7,30.20,NE,55,0.0,0.0,95,0.13,,---,0.63,VWS V14.00,2013-03-01 23:30:00,
2013-03-01 15:35:00,48.3,46.9,30.22,NE,55,0.0,1.0,95,0.07,,---,0.63,VWS V14.00,2013-03-01 23:35:00,
2013-03-01 15:40:00,48.4,47.0,30.21,NE,55,1.0,3.0,95,0.04,,---,0.63,VWS V14.00,2013-03-01 23:40:00,
2013-03-01 15:45:00,48.5,47.1,30.21,NE,55,0.0,1.0,95,0.03,,---,0.64,VWS V14.00,2013-03-01 23:45:00,
2013-03-01 15:50:00,48.5,47.1,30.21,ESE,115,2.0,6.0,95,0.03,,---,0.64,VWS V14.00,2013-03-01 23:50:00,
2013-03-01 15:55:00,48.4,47.0,30.21,ESE,115,0.0,1.0,95,0.05,,---,0.65,VWS V14.00,2013-03-01 23:55:00,
2013-03-01 16:00:00,48.2,46.8,30.21,ESE,115,0.0,2.0,95,0.29,,---,0.67,VWS V14.00,2013-03-02 00:00:00,
2013-03-01 16:05:00,48.2,46.8,30.21,ESE,115,1.0,1.0,95,0.14,,---,0.68,VWS V14.00,2013-03-02 00:05:00,
2013-03-01 16:10:00,48.0,46.6,30.21,WNW,292,2.0,4.0,95,0.35,,---,0.70,VWS V14.00,2013-03-02 00:10:00,
2013-03-01 16:15:00,47.7,46.3,30.21,West,280,0.0,5.0,95,0.20,,---,0.72,VWS V14.00,2013-03-02 00:15:00,
2013-03-01 16:20:00,47.6,46.2,30.20,East,91,0.0,4.0,95,0.18,,---,0.73,VWS V14.00,2013-03-02 00:20:00,
2013-03-01 16:25:00,47.6,46.2,30.20,SW,222,2.0,2.0,95,0.09,,---,0.74,VWS V14.00,2013-03-02 00:25:00,
2013-03-01 16:30:00,47.3,45.9,30.21,North,355,2.0,4.0,95,0.56,,---,0.78,VWS V14.00,2013-03-02 00:30:00,
2013-03-01 16:35:00,47.0,45.7,30.21,WNW,286,0.0,4.0,95,0.19,,---,0.81,VWS V14.00,2013-03-02 00:35:00,
2013-03-01 16:40:00,47.0,45.7,30.21,WNW,286,0.0,1.0,95,0.13,,---,0.82,VWS V14.00,2013-03-02 00:40:00,
2013-03-01 16:45:00,47.0,45.7,30.19,SE,143,0.0,4.0,95,0.06,,---,0.82,VWS V14.00,2013-03-02 00:45:00,
2013-03-01 16:50:00,47.0,45.7,30.20,WNW,284,5.0,5.0,95,0.03,,---,0.82,VWS V14.00,2013-03-02 00:50:00,
2013-03-01 16:55:00,46.7,45.3,30.21,West,265,3.0,7.0,95,0.03,,---,0.83,VWS V14.00,2013-03-02 00:55:00,
2013-03-01 17:00:00,46.6,45.2,30.21,West,265,0.0,4.0,95,0.06,,---,0.83,VWS V14.00,2013-03-02 01:00:00,
2013-03-01 17:05:00,46.6,45.2,30.21,West,281,2.0,4.0,95,0.06,,---,0.83,VWS V14.00,2013-03-02 01:05:00,
2013-03-01 17:10:00,46.6,45.2,30.22,West,281,0.0,2.0,95,0.05,,---,0.83,VWS V14.00,2013-03-02 01:10:00,
2013-03-01 17:15:00,46.5,45.2,30.21,SSE,155,1.0,2.0,95,0.18,,---,0.85,VWS V14.00,2013-03-02 01:15:00,
2013-03-01 17:20:00,46.5,45.2,30.21,East,89,1.0,4.0,95,0.10,,---,0.86,VWS V14.00,2013-03-02 01:20:00,
2013-03-01 17:25:00,46.3,45.0,30.20,SW,232,4.0,9.0,95,0.06,,---,0.86,VWS V14.00,2013-03-02 01:25:00,
2013-03-01 17:30:00,46.1,44.8,30.20,NNE,17,0.0,6.0,95,0.04,,---,0.87,VWS V14.00,2013-03-02 01:30:00,
2013-03-01 17:35:00,46.0,44.7,30.21,West,277,0.0,5.0,95,0.04,,---,0.87,VWS V14.00,2013-03-02 01:35:00,
2013-03-01 17:40:00,46.0,44.7,30.21,SSW,208,1.0,5.0,95,0.04,,---,0.87,VWS V14.00,2013-03-02 01:40:00,
2013-03-01 17:45:00,46.0,44.7,30.20,SSW,208,0.0,2.0,95,0.03,,---,0.87,VWS V14.00,2013-03-02 01:45:00,
2013-03-01 17:50:00,45.9,44.5,30.20,SW,219,1.0,2.0,95,0.03,,---,0.87,VWS V14.00,2013-03-02 01:50:00,
2013-03-01 17:55:00,45.8,44.5,30.20,West,265,5.0,6.0,95,0.03,,---,0.87,VWS V14.00,2013-03-02 01:55:00,
2013-03-01 18:00:00,45.7,44.3,30.20,West,275,4.0,6.0,95,0.03,,---,0.87,VWS V14.00,2013-03-02 02:00:00,
2013-03-01 18:05:00,45.7,44.3,30.20,West,275,0.0,4.0,95,0.00,,---,0.87,VWS V14.00,2013-03-02 02:05:00,
2013-03-01 18:10:00,45.6,44.2,30.20,West,275,0.0,2.0,95,0.00,,---,0.87,VWS V14.00,2013-03-02 02:10:00,
2013-03-01 18:15:00,45.5,44.2,30.21,West,275,0.0,1.0,95,0.00,,---,0.87,VWS V14.00,2013-03-02 02:15:00,
2013-03-01 18:20:00,45.4,44.0,30.21,West,275,2.0,4.0,95,0.00,,---,0.87,VWS V14.00,2013-03-02 02:20:00,
2013-03-01 18:25:00,45.2,43.9,30.20,West,262,0.0,4.0,95,0.00,,---,0.87,VWS V14.00,2013-03-02 02:25:00,
2013-03-01 18:30:00,45.2,43.9,30.21,West,262,0.0,2.0,95,0.00,,---,0.87,VWS V14.00,2013-03-02 02:30:00,
2013-03-01 18:35:00,45.3,44.0,30.21,West,263,0.0,2.0,95,0.00,,---,0.88,VWS V14.00,2013-03-02 02:35:00,
2013-03-01 18:40:00,45.2,43.9,30.21,SSE,150,0.0,4.0,95,0.00,,---,0.88,VWS V14.00,2013-03-02 02:40:00,
2013-03-01 18:45:00,45.1,43.8,30.21,South,188,1.0,2.0,95,0.00,,---,0.88,VWS V14.00,2013-03-02 02:45:00,
2013-03-01 18:50:00,44.8,43.5,30.21,South,188,2.0,2.0,95,0.00,,---,0.88,VWS V14.00,2013-03-02 02:50:00,
2013-03-01 18:55:00,44.8,43.5,30.22,South,188,0.0,2.0,95,0.00,,---,0.88,VWS V14.00,2013-03-02 02:55:00,
2013-03-01 19:00:00,44.9,43.6,30.22,South,188,0.0,0.0,95,0.00,,---,0.88,VWS V14.00,2013-03-02 03:00:00,
2013-03-01 19:05:00,44.9,43.6,30.21,South,188,0.0,1.0,95,0.00,,---,0.88,VWS V14.00,2013-03-02 03:05:00,
2013-03-01 19:10:00,45.0,43.7,30.21,SE,124,1.0,2.0,95,0.00,,---,0.88,VWS V14.00,2013-03-02 03:10:00,
2013-03-01 19:15:00,45.0,43.7,30.21,SE,124,1.0,1.0,95,0.00,,---,0.89,VWS V14.00,2013-03-02 03:15:00,
2013-03-01 19:20:00,44.8,43.5,30.20,ESE,123,0.0,1.0,95,0.06,,---,0.90,VWS V14.00,2013-03-02 03:20:00,
2013-03-01 19:25:00,44.8,43.5,30.21,SE,124,1.0,1.0,95,0.11,,---,0.91,VWS V14.00,2013-03-02 03:25:00,
2013-03-01 19:30:00,45.0,43.7,30.21,SE,124,1.0,1.0,95,0.10,,---,0.91,VWS V14.00,2013-03-02 03:30:00,
2013-03-01 19:35:00,45.1,43.8,30.21,ESE,123,0.0,2.0,95,0.06,,---,0.91,VWS V14.00,2013-03-02 03:35:00,
2013-03-01 19:40:00,45.0,43.7,30.22,SW,235,0.0,3.0,95,0.04,,---,0.91,VWS V14.00,2013-03-02 03:40:00,
2013-03-01 19:45:00,44.8,43.5,30.22,SW,236,0.0,1.0,95,0.03,,---,0.92,VWS V14.00,2013-03-02 03:45:00,
2013-03-01 19:50:00,44.8,43.5,30.22,South,178,0.0,2.0,95,0.03,,---,0.92,VWS V14.00,2013-03-02 03:50:00,
2013-03-01 19:55:00,45.0,43.7,30.22,WSW,252,2.0,3.0,95,0.03,,---,0.92,VWS V14.00,2013-03-02 03:55:00,
2013-03-01 20:00:00,44.9,43.6,30.22,WSW,252,0.0,2.0,95,0.00,,---,0.92,VWS V14.00,2013-03-02 04:00:00,
2013-03-01 20:05:00,45.0,43.7,30.22,WSW,252,0.0,1.0,95,0.00,,---,0.92,VWS V14.00,2013-03-02 04:05:00,
2013-03-01 20:10:00,45.0,43.7,30.22,WSW,251,0.0,1.0,95,0.00,,---,0.92,VWS V14.00,2013-03-02 04:10:00,
2013-03-01 20:15:00,45.0,43.7,30.22,WSW,251,0.0,0.0,95,0.00,,---,0.92,VWS V14.00,2013-03-02 04:15:00,
2013-03-01 20:20:00,44.9,43.6,30.22,WSW,251,0.0,1.0,95,0.00,,---,0.92,VWS V14.00,2013-03-02 04:20:00,
2013-03-01 20:25:00,44.8,43.5,30.22,WSW,252,0.0,0.0,95,0.00,,---,0.92,VWS V14.00,2013-03-02 04:25:00,
2013-03-01 20:30:00,44.4,43.1,30.22,WSW,252,0.0,1.0,95,0.00,,---,0.92,VWS V14.00,2013-03-02 04:30:00,
2013-03-01 20:35:00,44.2,42.9,30.22,WSW,252,0.0,0.0,95,0.00,,---,0.92,VWS V14.00,2013-03-02 04:35:00,
2013-03-01 20:40:00,44.2,42.9,30.22,WSW,252,0.0,0.0,95,0.00,,---,0.92,VWS V14.00,2013-03-02 04:40:00,
2013-03-01 20:45:00,44.4,43.1,30.22,WSW,251,1.0,2.0,95,0.00,,---,0.92,VWS V14.00,2013-03-02 04:45:00,
2013-03-01 20:50:00,44.2,42.9,30.22,WSW,251,0.0,1.0,95,0.00,,---,0.92,VWS V14.00,2013-03-02 04:50:00,
2013-03-01 20:55:00,44.0,42.7,30.22,WSW,251,0.0,2.0,95,0.00,,---,0.92,VWS V14.00,2013-03-02 04:55:00,
2013-03-01 21:00:00,43.9,42.6,30.22,WSW,252,0.0,0.0,95,0.00,,---,0.92,VWS V14.00,2013-03-02 05:00:00,
2013-03-01 21:05:00,44.0,42.7,30.22,WSW,251,0.0,0.0,95,0.00,,---,0.92,VWS V14.00,2013-03-02 05:05:00,
2013-03-01 21:10:00,44.1,42.8,30.22,WSW,252,0.0,2.0,95,0.00,,---,0.93,VWS V14.00,2013-03-02 05:10:00,
2013-03-01 21:15:00,44.3,43.0,30.22,WSW,252,0.0,1.0,95,0.00,,---,0.93,VWS V14.00,2013-03-02 05:15:00,
2013-03-01 21:20:00,44.3,43.0,30.22,WSW,252,0.0,0.0,95,0.00,,---,0.93,VWS V14.00,2013-03-02 05:20:00,
2013-03-01 21:25:00,44.3,43.0,30.22,WSW,252,0.0,1.0,95,0.00,,---,0.93,VWS V14.00,2013-03-02 05:25:00,
2013-03-01 21:30:00,44.1,42.8,30.22,WSW,252,0.0,1.0,95,0.00,,---,0.93,VWS V14.00,2013-03-02 05:30:00,
2013-03-01 21:35:00,44.1,42.8,30.21,WSW,252,0.0,0.0,95,0.00,,---,0.93,VWS V14.00,2013-03-02 05:35:00,
2013-03-01 21:40:00,44.1,42.8,30.21,SW,236,0.0,1.0,95,0.00,,---,0.93,VWS V14.00,2013-03-02 05:40:00,
2013-03-01 21:45:00,44.3,43.0,30.21,SW,235,0.0,1.0,95,0.00,,---,0.93,VWS V14.00,2013-03-02 05:45:00,
2013-03-01 21:50:00,44.5,43.2,30.21,ENE,69,1.0,2.0,95,0.00,,---,0.93,VWS V14.00,2013-03-02 05:50:00,
2013-03-01 21:55:00,44.2,42.9,30.21,WNW,298,1.0,5.0,95,0.00,,---,0.93,VWS V14.00,2013-03-02 05:55:00,
2013-03-01 22:00:00,43.8,42.5,30.22,WNW,298,0.0,2.0,95,0.00,,---,0.93,VWS V14.00,2013-03-02 06:00:00,
2013-03-01 22:05:00,43.9,42.6,30.21,WNW,298,0.0,0.0,95,0.00,,---,0.93,VWS V14.00,2013-03-02 06:05:00,
2013-03-01 22:10:00,44.3,43.0,30.21,WNW,298,0.0,0.0,95,0.00,,---,0.93,VWS V14.00,2013-03-02 06:10:00,
2013-03-01 22:15:00,44.5,43.2,30.21,WNW,298,0.0,0.0,95,0.00,,---,0.93,VWS V14.00,2013-03-02 06:15:00,
2013-03-01 22:20:00,44.6,43.3,30.22,WNW,298,0.0,0.0,95,0.00,,---,0.94,VWS V14.00,2013-03-02 06:20:00,
2013-03-01 22:25:00,44.7,43.4,30.21,WNW,298,0.0,0.0,95,0.00,,---,0.94,VWS V14.00,2013-03-02 06:25:00,
2013-03-01 22:30:00,44.7,43.4,30.22,WNW,298,0.0,1.0,95,0.00,,---,0.94,VWS V14.00,2013-03-02 06:30:00,
2013-03-01 22:35:00,44.5,43.2,30.22,WNW,298,0.0,1.0,95,0.00,,---,0.94,VWS V14.00,2013-03-02 06:35:00,
2013-03-01 22:40:00,44.3,43.0,30.22,WNW,298,0.0,0.0,95,0.00,,---,0.94,VWS V14.00,2013-03-02 06:40:00,
2013-03-01 22:45:00,44.2,42.9,30.22,WNW,298,0.0,0.0,95,0.00,,---,0.94,VWS V14.00,2013-03-02 06:45:00,
2013-03-01 22:50:00,44.4,43.1,30.22,WNW,298,0.0,0.0,95,0.00,,---,0.94,VWS V14.00,2013-03-02 06:50:00,
2013-03-01 22:55:00,44.5,43.2,30.22,WNW,298,0.0,0.0,95,0.00,,---,0.94,VWS V14.00,2013-03-02 06:55:00,
2013-03-01 23:00:00,44.4,43.1,30.21,WNW,298,0.0,0.0,95,0.00,,---,0.94,VWS V14.00,2013-03-02 07:00:00,
2013-03-01 23:05:00,44.2,42.9,30.21,WNW,298,0.0,0.0,95,0.00,,---,0.94,VWS V14.00,2013-03-02 07:05:00,
2013-03-01 23:10:00,44.1,42.8,30.21,WNW,298,0.0,0.0,95,0.00,,---,0.94,VWS V14.00,2013-03-02 07:10:00,
2013-03-01 23:15:00,44.1,42.8,30.21,WNW,298,0.0,0.0,95,0.00,,---,0.94,VWS V14.00,2013-03-02 07:15:00,
2013-03-01 23:20:00,43.8,42.5,30.21,WNW,298,0.0,1.0,95,0.00,,---,0.94,VWS V14.00,2013-03-02 07:20:00,
2013-03-01 23:25:00,43.6,42.3,30.21,WNW,298,0.0,0.0,95,0.00,,---,0.95,VWS V14.00,2013-03-02 07:25:00,
2013-03-01 23:30:00,43.5,42.2,30.21,WNW,298,0.0,0.0,95,0.00,,---,0.95,VWS V14.00,2013-03-02 07:30:00,
2013-03-01 23:35:00,43.5,42.2,30.21,WNW,298,0.0,0.0,95,0.00,,---,0.95,VWS V14.00,2013-03-02 07:35:00,
2013-03-01 23:40:00,43.6,42.3,30.21,WNW,298,0.0,0.0,95,0.00,,---,0.95,VWS V14.00,2013-03-02 07:40:00,
2013-03-01 23:45:00,43.8,42.5,30.21,WNW,298,0.0,0.0,95,0.00,,---,0.95,VWS V14.00,2013-03-02 07:45:00,
2013-03-01 23:50:00,43.9,42.6,30.21,WNW,298,0.0,0.0,95,0.00,,---,0.95,VWS V14.00,2013-03-02 07:50:00,
2013-03-01 23:55:00,44.0,42.7,30.21,WNW,298,0.0,0.0,95,0.00,,---,0.95,VWS V14.00,2013-03-02 07:55:00,